sat.trackr.live / text

‹ back to catalog

STARLINK-4715

NORAD 53801 · 2022-111AE

PAYLOAD ACTIVE UNKNOWN

§ Identity

Operator
Country
US
Launch date
2022-09-11
Launch site
AFETR
Launch vehicle
Mass (kg)
RCS (m²)

Purposes: comms

External: N2YO · Heavens-Above · Gunter

§ Orbital elements

Epoch: 2026-05-24T21:22:00.816672Z

Period
95.44 min
Inclination
53.2131°
Eccentricity
0.0002142
Mean motion
15.08794739 rev/d
Perigee alt
538.4 km
Apogee alt
541.4 km
Semi-major
6,918.0 km
B*
6.5602e-4
RAAN
281.7891°
Arg perigee
88.7590°
Mean anomaly
271.3648°
Rev number
20,532

§ Raw data

STARLINK-47151 53801U 22111AE  26144.89028723  .00010155  00000+0  65602-3 0  99932 53801  53.2131 281.7891 0002142  88.7590 271.3648 15.08794739205322

JSON: /api/v1/satellites/53801 · /tle

For live sub-satellite position, see the globe view (requires WebGL).

§ Visibility from observer

Set your observer location to see the next 7 days of passes ≥ 10°. The values pass through the URL so the page stays shareable.

No JS? Fill the form by hand. The geolocation button needs JavaScript.